默认 日期 大小 文件数 浏览量 最新下载 xml
falcon磁力链接相关资源由用户搜索指令自动获取,结果来源于网络,本站不存储任何资料,亦不承担任何责任,请于24小时内删除,搜索到5189个磁力,显示前4000条数据,用时4ms。
    {"R2R": {"0000133874661339.R2RUVI": 48}, "UVS-3200.ufs": 1704916400}
创建时间: 2021-12-06 09:53:06 大小:1.59 GB 文件数量:2 热度:5 最近下载:2025-02-21 06:56:05
    ... -love_u_more_solarstone_pure_mix-(puretrance225)-single-web-2021-falcon.m3u": 58, "00-sunscreem-love_u_more_solarstone_pure_mix ... -(puretrance225)-single-web-2021-falcon.nfo": 1156, "00-sunscreem-love_u_more_solarstone_pure_mix ...
创建时间: 2021-12-06 10:27:47 大小:17.36 MB 文件数量:4 热度:3 最近下载:2025-01-27 02:38:09
    {"Emulation 2.zip": 2819133758}
创建时间: 2021-12-06 10:30:32 大小:2.63 GB 文件数量:1 热度:5 最近下载:2025-01-27 07:35:02
    {"UVI Electro Suite.part1.rar": 943718400, "UVI Electro Suite.part2.rar": 943718400, "UVI Electro Suite.part3.rar": 589021391}
创建时间: 2021-12-06 11:03:38 大小:2.31 GB 文件数量:3 热度:8 最近下载:2025-02-02 05:02:29
    {"UVICSM.part1.rar": 943718400, "UVICSM.part2.rar": 325730735}
创建时间: 2021-12-06 11:39:59 大小:1.18 GB 文件数量:2 热度:7 最近下载:2025-10-09 13:33:03
    {"R2R": {"00000DC60C590DC7.R2RUVI": 48}, "UVX-3P.ufs": 3079712768}
创建时间: 2021-12-06 11:50:29 大小:2.87 GB 文件数量:2 热度:5 最近下载:2025-01-09 11:46:08
    {"01-samra-paragon.mp3": 19469906, "00-samra-paragon-single-web-2021-falcon.m3u": 21, "00-samra-paragon-single-web-2021-falcon.nfo": 1106, "00-samra-paragon-single-web-2021-falcon.sfv": 31}
创建时间: 2021-12-06 12:47:30 大小:18.57 MB 文件数量:4 热度:4 最近下载:2025-01-02 12:42:07
    ... "00-moonbeam_and_joel_jorgensen-im_giving_up_remixes-web-2021-falcon.nfo": 1389, "00-moonbeam_and_joel_jorgensen- ... im_giving_up_remixes-web-2021-falcon.sfv": 307, "02-moonbeam_and_joel_jorgensen- ...
创建时间: 2021-12-06 12:55:04 大小:48.43 MB 文件数量:7 热度:3 最近下载:2025-02-06 14:48:07
    {"R2R": {"000010FB4D0910FC.R2RUVI": 48}, "UVX80.ufs": 2037639972}
创建时间: 2021-12-06 13:29:19 大小:1.9 GB 文件数量:2 热度:6 最近下载:2025-01-19 22:10:06
    {"UVIV.rar": 507742692}
创建时间: 2021-12-06 13:43:42 大小:484.22 MB 文件数量:1 热度:5 最近下载:2025-01-27 02:38:05
    ... -dream-coming_soon_manmademan_remix-single-web-2021-falcon.m3u": 44, "00-x-dream ... -coming_soon_manmademan_remix-single-web-2021-falcon.nfo": 1167, "00-x-dream ... -coming_soon_manmademan_remix-single-web-2021-falcon.sfv": 54}
创建时间: 2021-12-06 16:33:41 大小:18.02 MB 文件数量:4 热度:4 最近下载:2025-01-06 21:40:02
    ... -brighter_aimoon_remix-(itp180e)-single-web-2021-falcon.m3u": 87, "00-alexander_popov_vs. ... -brighter_aimoon_remix-(itp180e)-single-web-2021-falcon.nfo": 1175, "00-alexander_popov_vs._novan_feat ... brighter_aimoon_remix-(itp180e)-single-web-2021-falcon.sfv": 97}
创建时间: 2021-12-06 16:45:41 大小:16.92 MB 文件数量:4 热度:3 最近下载:2025-01-20 14:43:03
    ... suite 1.5.2 for Falcon.part01.rar": 524288000, "UVI ... suite 1.5.2 for Falcon.part02.rar": 524288000, "UVI ... suite 1.5.2 for Falcon.part03.rar": 524288000, "UVI ... suite 1.5.2 for Falcon.part04.rar": 524288000, "UVI ... suite 1.5.2 for Falcon.part05.rar": 524288000, "UVI ...
创建时间: 2021-12-06 17:48:20 大小:4.42 GB 文件数量:10 热度:5 最近下载:2025-01-20 12:01:49
    {"01-robert_curtis-afterglow_extended_mix.mp3": 16839983, "00-robert_curtis-afterglow-single-web-2021-falcon.m3u": 44, "00-robert_curtis-afterglow-single-web-2021-falcon.nfo": 1120, "00-robert_curtis-afterglow-single-web-2021-falcon.sfv": 54}
创建时间: 2021-12-06 19:18:38 大小:16.06 MB 文件数量:4 热度:5 最近下载:2025-01-24 00:14:01
    {"R2R": {"00000EE4243D0EE5.R2RUVI": 48}, "OB Legacy.ufs": 17933513792}
创建时间: 2021-12-06 19:26:21 大小:16.7 GB 文件数量:2 热度:7 最近下载:2025-01-23 14:56:07
    {"R2R": {"00000D09A7480D0A.R2RUVI": 38}, "PlugSound Pro.ufs": 4211394941}
创建时间: 2021-12-06 20:53:19 大小:3.92 GB 文件数量:2 热度:11 最近下载:2025-01-15 21:57:03
    ... -mount-starlight-(watr119)-web-2021-falcon.m3u": 63, "00-u-mount ... -starlight-(watr119)-web-2021-falcon.nfo": 1429, "00-u-mount ... -starlight-(watr119)-web-2021-falcon.sfv": 83}
创建时间: 2021-12-06 22:00:33 大小:24.91 MB 文件数量:5 热度:9 最近下载:2025-08-18 15:49:02
    ... -factor_b_and_cat_martin-move_mountains-single-web-2021-falcon.m3u": 59, "00-factor_b_and_cat_martin-move_mountains ... -single-web-2021-falcon.nfo": 1119, "00-factor_b_and_cat_martin-move_mountains ...
创建时间: 2021-12-06 22:45:35 大小:19.12 MB 文件数量:4 热度:3 最近下载:2025-02-21 06:55:04
    {"Kinetics.zip": 201169001}
创建时间: 2021-12-06 22:46:03 大小:191.85 MB 文件数量:1 热度:6 最近下载:2025-01-28 02:01:47
    {"01-solanca-in_bloom_extended_mix.mp3": 15776223, "00-solanca-in_bloom-single-web-2021-falcon.m3u": 37, "00-solanca-in_bloom-single-web-2021-falcon.nfo": 1097, "00-solanca-in_bloom-single-web-2021-falcon.sfv": 47}
创建时间: 2021-12-06 23:05:12 大小:15.05 MB 文件数量:4 热度:3 最近下载:2025-03-02 03:50:03